Theta_e
336 331 330 327 325 326 325 327 329 331 336 337 335 334 331 326 315 315 322 326 329 331 329 319 313 311 310 311 312 312 311 311 311 311 311 312 311 310 313 314 314 318 315
335 331 330 326 324 324 328 331 333 334 335 336 334 334 334 321 313 318 324 328 330 329 320 312 311 312 312 311 311 311 310 310 309 309 308 308 316 318 321 324 324 323 323
334 328 326 326 327 326 332 332 333 333 333 336 336 335 323 314 312 322 327 328 325 317 314 313 314 313 312 309 309 309 308 307 307 307 306 307 310 317 320 324 322 322 323
339 332 327 328 327 327 331 331 330 332 332 334 332 321 315 313 314 324 326 323 318 316 315 318 317 318 314 315 318 314 309 308 307 307 306 306 308 309 308 316 318 321 322
339 338 327 327 325 325 331 329 328 328 325 322 317 315 313 313 315 323 319 317 316 315 316 321 321 321 321 320 320 315 310 308 307 307 307 306 305 305 305 305 306 308 313
336 339 327 326 326 326 327 330 329 325 320 321 318 314 313 313 315 316 316 315 316 318 320 322 322 322 322 322 321 316 316 309 308 307 307 307 307 305 304 304 304 304 304
330 337 331 327 327 326 327 328 326 323 321 318 318 314 312 314 316 316 316 321 319 319 320 322 322 323 323 322 321 319 317 312 308 308 308 307 307 306 305 304 304 303 303
331 331 332 331 328 326 327 325 324 323 323 320 315 313 312 316 317 316 317 320 321 320 321 321 322 322 323 322 320 319 317 313 309 309 309 308 307 306 305 304 304 304 303
328 329 332 331 328 325 324 324 324 323 324 319 316 319 313 319 317 315 319 320 321 320 321 321 321 322 322 321 319 318 315 312 310 309 308 307 308 307 306 305 304 304 303
328 328 329 330 333 327 327 326 325 324 324 323 319 316 315 320 316 315 319 321 321 321 321 321 320 321 321 320 318 316 313 311 310 309 308 308 308 309 306 306 305 304 303
330 329 329 328 330 331 330 327 325 325 327 325 321 322 322 320 315 315 320 321 321 321 321 321 320 320 320 319 317 315 312 310 310 310 309 308 308 310 308 306 305 304 303
330 330 330 328 327 330 331 328 326 327 326 326 325 324 323 320 315 316 320 321 320 320 320 319 320 320 319 318 316 313 311 310 310 310 309 307 310 310 307 305 304 303 303
327 327 329 330 328 327 327 331 327 325 325 327 322 325 323 319 316 316 318 317 317 316 315 315 316 317 318 315 312 310 310 310 309 309 308 307 311 312 308 304 304 303 302
326 325 327 327 327 327 328 331 329 326 327 326 322 327 324 319 316 316 316 317 317 318 318 318 318 317 315 312 310 309 309 309 309 309 308 307 308 310 308 305 304 302 302
325 325 326 327 326 327 328 330 328 326 325 323 326 325 326 320 315 316 317 317 317 318 318 319 319 319 318 315 311 309 309 310 309 308 307 307 307 306 307 305 305 303 302
328 326 328 326 326 327 327 328 327 325 323 324 323 326 327 320 317 316 316 317 317 317 318 319 319 319 319 318 310 310 310 310 309 308 307 307 306 305 304 304 304 303 303
328 327 328 326 327 326 327 327 325 325 323 319 322 320 323 321 319 316 315 316 316 318 319 320 319 319 319 319 310 310 310 310 311 309 307 306 306 305 304 304 304 303 302
328 327 327 325 326 326 327 326 327 324 320 312 318 318 319 320 317 315 316 316 315 318 319 320 320 320 320 318 310 310 310 311 310 308 307 307 306 305 305 305 304 303 303
327 327 326 326 326 324 326 326 325 321 315 316 317 317 320 317 318 318 318 316 316 318 319 320 321 321 320 314 310 310 310 311 310 311 309 308 308 306 305 305 304 303 303
326 327 327 327 325 326 325 323 320 317 317 319 320 320 316 315 319 320 318 317 316 318 319 320 321 321 319 314 310 310 310 310 311 312 311 310 309 308 306 305 304 304 303
325 325 325 326 325 325 323 318 317 322 321 323 322 321 315 320 321 318 318 317 316 318 319 320 321 321 318 314 310 310 310 310 310 310 311 311 311 309 308 306 305 304 304
324 324 324 322 323 324 319 317 317 320 319 320 317 314 314 315 317 317 316 317 316 318 319 320 322 321 319 317 314 311 310 310 310 311 311 312 311 310 309 307 305 304 304
323 323 324 323 324 323 320 316 316 317 319 320 317 315 315 316 316 315 315 316 318 320 321 321 322 322 321 319 318 313 311 311 311 311 311 311 311 310 309 308 306 305 304
322 321 322 322 323 323 320 318 316 316 316 316 314 317 318 316 316 315 318 319 321 322 321 322 322 322 322 321 319 316 313 312 312 311 311 312 311 311 310 309 307 305 305
322 322 321 321 321 321 321 319 316 318 318 317 315 315 316 317 315 316 318 318 319 320 321 322 323 322 322 322 321 320 316 312 311 311 311 311 311 310 309 308 307 306 305
321 321 320 320 320 320 320 319 317 314 314 315 316 316 316 314 315 317 318 319 317 317 320 321 322 322 323 322 321 320 318 314 312 311 311 312 311 307 306 305 304 303 302
Wind_Speed
29 34 34 32 31 29 25 22 27 30 31 29 30 29 26 22 22 26 28 27 26 23 21 20 21 22 25 26 25 24 23 22 21 22 22 21 22 22 21 20 21 23 21
33 35 36 32 33 30 30 31 31 30 34 34 32 29 25 23 23 27 28 28 27 26 24 24 25 26 26 26 26 25 24 22 21 21 21 22 23 24 24 24 24 24 24
30 37 33 32 33 33 31 31 30 30 31 33 31 27 24 24 25 29 29 28 29 28 27 27 27 27 27 28 28 26 25 23 22 22 22 24 23 25 24 25 24 24 22
27 33 39 36 34 37 35 33 28 31 31 29 29 26 24 24 29 31 31 30 30 29 27 28 29 28 28 28 26 27 25 23 22 22 22 23 24 22 23 23 24 23 23
23 30 34 36 35 35 35 34 31 30 31 27 26 25 25 27 31 33 33 31 30 29 28 28 27 26 26 26 25 26 25 23 21 21 23 23 23 22 21 20 20 20 20
22 33 39 36 35 34 37 37 34 32 30 27 24 24 26 29 33 34 33 32 32 31 28 27 27 26 25 23 23 23 23 22 21 21 21 22 21 20 19 19 18 18 17
21 30 34 35 35 36 39 39 35 32 31 28 26 22 26 32 35 35 34 34 32 30 27 26 23 24 23 22 21 20 19 20 19 19 20 20 20 19 19 19 19 19 18
17 24 27 35 37 37 38 39 32 30 27 30 26 25 30 36 37 36 35 33 31 28 26 23 21 22 22 20 19 17 17 17 18 18 17 18 18 18 19 19 19 19 18
19 23 23 29 37 35 37 37 35 38 36 32 31 26 33 38 38 36 35 33 31 27 24 22 22 23 22 19 17 16 15 15 16 16 16 16 16 17 18 18 18 18 18
17 24 25 28 36 41 37 34 35 42 41 36 31 27 34 39 37 36 35 33 31 27 23 21 21 21 19 16 16 14 13 14 13 14 14 14 14 14 16 17 17 18 18
16 21 23 30 34 44 38 35 36 45 42 38 36 28 40 40 38 36 36 33 30 27 23 19 19 20 17 14 13 11 11 11 11 12 11 11 12 13 15 16 16 17 17
12 13 17 26 32 36 39 38 44 47 44 40 33 34 41 41 39 36 35 32 29 25 21 18 17 16 14 14 12 10 8 9 9 10 10 10 10 12 13 14 14 14 15
15 19 21 24 22 27 31 38 52 49 45 43 37 39 42 43 41 39 37 33 29 25 23 19 16 15 13 11 9 9 8 8 7 8 9 8 9 11 11 12 12 11 12
13 15 12 15 29 43 41 46 57 54 46 40 41 39 42 45 42 40 37 32 28 25 22 19 15 14 13 11 8 8 8 7 6 7 7 6 7 7 9 10 10 9 9
14 11 10 16 19 27 35 59 62 55 48 47 45 40 45 45 43 40 35 31 27 24 21 19 15 14 13 8 7 7 7 5 5 5 4 5 6 5 5 7 8 7 7
10 13 9 8 3 32 32 54 56 51 47 46 48 45 44 44 42 38 35 31 27 24 21 18 15 14 11 8 8 8 6 5 4 4 3 4 5 4 3 5 6 6 6
7 10 6 10 12 32 35 49 44 46 43 44 44 43 39 39 41 39 33 29 19 24 22 18 16 13 12 10 9 8 6 6 5 4 4 4 3 3 2 4 3 3 5
9 10 11 12 14 23 34 41 38 36 40 40 44 38 35 38 38 36 35 31 31 27 24 19 18 13 12 10 10 9 9 6 4 5 6 4 2 2 1 1 1 1 3
8 13 14 15 18 23 31 37 44 44 43 39 37 37 40 36 35 34 33 29 27 27 24 21 17 13 13 12 11 11 10 7 6 5 5 4 4 4 3 2 3 2 3
10 13 16 18 22 28 32 37 37 35 34 37 41 44 42 39 37 33 30 28 27 26 24 21 16 14 14 12 13 13 12 10 10 8 7 8 7 7 7 6 6 6 5
10 16 15 24 29 32 35 36 34 33 37 38 39 37 43 31 30 29 28 27 25 27 25 21 17 18 19 18 15 16 15 15 14 14 13 12 13 12 11 11 10 10 9
14 13 11 23 35 32 35 37 38 36 37 34 35 39 40 37 30 29 27 26 27 26 25 23 21 23 21 20 20 18 14 20 20 20 19 19 17 17 16 15 14 13 12
14 13 17 18 32 30 36 41 43 38 33 35 34 32 34 35 32 33 32 27 27 25 25 25 26 25 25 24 23 20 11 15 16 24 25 25 23 21 20 19 19 18 17
18 18 20 24 35 38 38 37 42 43 41 40 39 35 35 33 35 35 30 26 26 26 26 29 30 28 27 28 26 28 30 20 14 10 20 24 24 24 23 23 22 22 22
20 21 22 25 30 31 29 35 42 40 40 40 38 40 40 34 34 34 32 30 27 26 28 31 32 33 33 32 31 31 32 34 31 24 14 16 20 21 24 25 25 24 23
23 22 23 24 28 31 32 34 41 43 41 40 39 43 45 43 40 35 33 34 31 31 29 29 30 32 34 35 34 35 36 37 34 32 28 28 23 18 18 21 22 21 18
Wind_Direction
176 178 181 174 176 181 199 192 174 166 168 174 169 164 162 158 155 154 151 148 145 143 140 135 128 124 117 112 107 104 102 101 102 103 101 98 95 93 90 87 84 80 84
170 176 183 177 175 175 182 179 170 163 165 168 167 166 167 169 162 157 153 151 148 147 142 136 130 124 115 112 109 106 100 99 100 99 100 98 92 90 91 90 85 83 83
182 180 183 186 182 178 177 169 165 162 160 167 172 173 173 170 164 159 155 153 149 145 140 135 131 124 117 110 105 100 97 96 95 96 97 95 93 93 89 90 96 93 90
191 190 188 194 187 180 172 169 168 169 164 166 173 175 177 171 165 160 159 156 151 144 139 135 130 122 116 109 100 95 93 92 91 92 92 92 91 89 90 93 93 94 90
201 195 193 189 187 184 177 174 169 167 168 163 177 177 176 169 164 162 160 155 150 146 142 138 134 124 117 111 102 96 92 89 90 91 90 91 92 91 93 93 93 95 95
197 194 192 190 192 191 187 177 174 170 169 175 183 175 172 167 164 162 159 155 149 145 145 137 133 126 121 111 105 99 91 89 91 90 91 92 90 92 92 91 88 81 79
210 199 195 195 197 198 187 183 176 177 174 178 177 183 172 169 165 162 158 154 150 147 144 137 134 128 126 115 107 97 88 87 87 88 88 89 89 88 87 85 83 79 75
208 212 200 200 205 188 180 183 190 179 178 183 179 182 176 172 168 165 161 156 149 149 146 138 137 137 129 120 109 100 95 86 87 88 88 88 85 85 83 81 80 78 77
234 214 211 200 196 191 184 194 193 191 189 175 175 198 176 172 170 167 161 156 153 153 147 140 136 134 133 127 115 103 91 84 82 83 84 87 86 86 84 81 79 76 74
236 231 227 208 212 201 194 196 202 204 183 177 174 180 179 174 171 167 162 158 156 154 151 139 134 134 133 129 116 103 94 87 83 86 84 87 87 83 77 74 71 69 70
221 226 218 215 213 218 208 208 204 195 191 177 176 197 180 173 172 166 163 160 159 159 156 149 146 140 140 135 116 103 94 90 86 82 81 84 93 92 83 72 66 63 59
230 216 214 213 217 217 219 202 198 184 185 182 183 188 178 174 173 167 163 163 162 160 159 160 157 150 149 145 127 115 103 95 87 81 82 78 96 97 85 74 64 58 53
230 231 231 219 227 222 221 224 192 187 183 178 176 188 179 174 172 167 162 161 161 162 159 162 155 153 153 142 133 133 121 109 91 82 87 83 92 102 86 68 58 52 53
221 203 223 235 229 231 220 203 190 183 188 185 179 186 180 175 172 169 167 166 169 170 168 166 165 156 152 144 133 127 117 104 84 84 93 82 85 85 83 67 62 59 47
214 227 261 268 277 275 198 180 179 178 175 177 180 185 184 175 172 172 169 171 176 176 177 171 169 169 159 151 145 140 128 121 104 101 102 104 83 83 79 47 51 58 43
233 237 238 229 144 153 135 156 166 174 176 182 182 186 183 177 172 170 171 176 179 184 183 176 177 175 164 162 164 154 149 138 129 125 123 128 114 109 76 32 21 23 18
240 218 205 175 137 177 164 163 161 163 171 177 185 187 184 178 174 174 176 179 189 191 185 181 176 185 193 176 174 171 160 150 140 136 139 145 139 136 73 11 16 9 357
237 215 189 173 177 159 176 178 185 180 174 180 185 188 183 183 180 183 185 180 198 191 192 189 191 195 191 192 187 180 170 171 168 147 162 174 180 191 208 329 255 14 355
232 205 209 184 179 166 170 171 174 174 174 187 182 186 186 181 192 192 191 185 190 193 196 197 198 206 202 196 191 188 188 193 190 190 191 197 221 232 241 262 245 296 332
218 216 208 201 190 184 175 171 166 172 182 185 187 184 179 186 196 194 198 192 199 197 201 200 208 209 210 213 204 199 204 210 211 214 213 218 233 244 253 264 261 266 292
223 218 223 201 187 181 177 170 169 179 184 186 187 183 178 187 191 196 199 201 205 205 208 211 208 212 208 210 212 217 220 227 227 228 233 236 242 243 246 254 264 266 274
207 207 211 205 183 183 175 174 174 173 177 175 176 184 192 190 202 198 206 207 212 211 215 217 221 218 215 218 219 226 232 237 238 239 241 245 248 247 249 254 258 263 267
201 200 196 189 182 187 183 181 180 180 183 180 182 189 191 196 201 203 215 216 217 221 224 226 230 230 225 225 231 226 217 232 237 241 244 245 248 249 252 254 257 259 260
205 203 194 196 191 189 190 192 185 188 193 199 197 199 198 202 209 211 218 223 224 229 235 237 240 238 234 236 236 239 238 249 244 248 248 244 246 249 252 255 258 259 258
197 202 205 201 203 204 205 207 191 196 201 207 203 208 204 213 215 222 226 226 231 235 242 244 241 239 240 240 242 247 246 245 248 245 248 260 252 250 248 250 254 256 259
203 203 203 199 199 203 208 205 203 204 209 215 220 212 212 219 221 227 232 232 236 242 244 250 252 247 247 245 248 251 253 249 246 249 259 258 261 253 254 255 254 257 257